Find Starlink 32634

NORAD ID: 62313 Int'l Des: 2024-239 Owner: SPXS Country: US Constellation: starlink operational
LEOCIRCULAR

Current View

Loading 3D Globe...

About Starlink 32634

Starlink 32634 (NORAD 62313) is a starlink constellation satellite (v2 mini) launched Dec 13, 2024 by SPXS of US. It operates in LEO, CIRCULAR orbit with a mass of 730.00 kg.

Upcoming Passes

Passes for default location (London). Set your location on the main map for personalized predictions.

Altitude History

Loading altitude history...

Two-Line Element Set

1 62313U 24239N 26235.39094306 .00019910 00000-0 59873-3 0 9992
2 62313 53.1563 124.9118 0001109 103.8830 256.2296 15.34405020 95112
Epoch: Aug 23, 2026 • Age: 18 hours

Current Status

Altitude 463.8 km
Apogee / Perigee N/A
Velocity 7.64 km/s
Sub-Earth Point 30.88°N, 105.24°W
Launch Date Dec 13, 2024
Age 1.6 years
Type internet

Technical Details

Classification Payload
Mass 730.00 kg
Dry Mass 700.00 kg
Total Mass 730.00 kg
Length 0.30 m
Diameter 4.10 m
Span 29.00 m
Shape Box + pan
Manufacturer SPXS
Bus Type Starlink V2M
Phase Status In Orbit
Owner/State SPXS/US

Most Searched